Regional Weather Roundup
Issued by NWS

Home | Current Version | Previous Version | Graphics & Text | Print | Product List | Glossary On
Versions: 1 2 3 4 5 6 7 8 9 10 11 12 13 14 15 16 17 18 19 20 21 22 23 24 25 26 27 28 29 30 31 32 33 34 35 36 37 38 39 40 41 42 43 44 45 46 47 48 49 50
000
ASUS45 KBOI 191010
RWRID
WEATHER ROUNDUP FOR IDAHO
NATIONAL WEATHER SERVICE BOISE ID
400 AM MDT SUN APR 19 2015

NOTE: "FAIR" INDICATES FEW OR NO CLOUDS BELOW 12000 FEET
WITH NO SIGNIFICANT WEATHER AND/OR OBSTRUCTIONS TO VISIBILITY

IDZ012-014-191100-
SOUTHWEST IDAHO


CITY           SKY/WX    TMP DP  RH WIND       PRES   REMARKS
BOISE          FAIR      46  24  42 CALM      30.09R
CALDWELL       FAIR      45  21  39 NW15      30.12S
$$

IDZ016-017-191100-
SOUTHCENTRAL IDAHO


CITY           SKY/WX    TMP DP  RH WIND       PRES   REMARKS
BURLEY         FAIR      38  29  70 SE3       30.11R
JEROME         FAIR      38  22  52 E6        30.10S WCI  33
TWIN FALLS     FAIR      46  18  32 SW10      30.11R
$$

IDZ019>023-191100-
SOUTHEAST IDAHO


CITY           SKY/WX    TMP DP  RH WIND       PRES   REMARKS
IDAHO FALLS    CLEAR     39  26  59 N14       30.15R WCI  31
POCATELLO      CLEAR     37  27  67 NE8       30.13R WCI  31
REXBURG        CLEAR     37  23  56 E10       30.16S WCI  30
$$

IDZ006-010-011-018-031-032-191100-
CENTRAL IDAHO MOUNTAINS


CITY           SKY/WX    TMP DP  RH WIND       PRES   REMARKS
MCCALL         FAIR      36  25  64 N7        30.17S WCI  30
HAILEY         FAIR      41  25  52 NW5       30.16R
STANLEY          N/A     27  18  69 CALM      30.21R
SALMON         FAIR      36  25  64 CALM      30.16S
CHALLIS        FAIR      35  15  44 CALM      30.17S
$$

IDZ002-004-006-007-026-191100-
NORTHERN IDAHO


CITY           SKY/WX    TMP DP  RH WIND       PRES   REMARKS
LEWISTON       FAIR      44  28  53 S6        30.17S
LOWELL           N/A     39  36  89 NW3       30.24R
COEUR D`ALENE  FAIR      36  30  80 CALM      30.18S
MULLAN PASS    FAIR      37  13  37 NW5       30.17F WCI  33
$$


USA.gov is the U.S. government's official web portal to all federal, state and local government web resources and services.